Location: West Cummington
(42.4920°N, 72.9680°W)
Time: 02:39:09
(UTC-05:00)

Daily predictions for brighter satellites

Satellite Brightness Start Highest point End
(mag) Time Altitude Azimuth Time Altitude Azimuth Time Altitude Azimuth
Cosmos 2369 Rocket 4.4 02:44:44 20° NNE 02:44:44 20° NNE 02:46:24 10° NNE
ATLAS 5 CENTAUR R/B 4.0 03:09:56 22° NE 03:09:56 22° NE 03:11:49 10° NE
Cosmos 1943 Rocket 3.6 03:15:08 34° NE 03:15:08 34° NE 03:18:15 10° NNE
CZ-4C R/B 3.6 03:15:30 32° E 03:15:30 32° E 03:19:47 10° NE
ADEOS II 3.4 03:16:43 10° NNE 03:21:08 37° E 03:21:08 37° E
Lacrosse 5 3.5 03:25:31 30° NE 03:25:31 30° NE 03:28:03 10° NE
Okean O Rocket 4.0 03:25:19 10° NNE 03:26:29 18° NNE 03:26:29 18° NNE
CZ-4B R/B 3.7 03:31:16 10° NNE 03:36:50 57° E 03:36:54 57° ESE
ATLAS CENTAUR R/B 3.9 03:42:29 53° SSW 03:42:29 53° SSW 03:55:10 10° SSE
ADEOS Rocket 4.3 03:38:13 10° N 03:41:51 30° NNW 03:41:51 30° NNW
Nadezhda 2 Rocket 4.3 03:47:50 10° N 03:53:59 89° E 04:00:08 10° S
Cosmos 1954 Rocket 4.2 03:57:43 64° SE 03:57:43 64° SE 04:02:15 10° SSE
USA 234 4.0 03:51:58 10° ENE 03:58:14 47° SE 04:01:04 30° S
Lacrosse 5 rocket 3.2 04:04:31 22° NNE 04:04:31 22° NNE 04:07:20 10° E
Cosmos 1782 Rocket 4.1 04:00:17 10° N 04:07:49 19° SSE 04:09:05 10° SSE
IRS-1C Rocket 4.2 04:05:50 10° N 04:10:28 61° NW 04:10:28 61° NW
Cosmos 1656 Rocket 3.6 04:10:08 64° SSW 04:11:04 88° ESE 04:16:48 10° NNE
GEOS 3 Rocket 3.6 04:08:48 10° SE 04:13:53 79° NE 04:16:01 36° NNW
ATLAS 3B R/B 3.8 04:07:45 10° S 04:14:52 45° ESE 04:21:46 10° NE
Meteor 1-14 Rocket 4.1 04:14:22 10° N 04:20:12 89° W 04:25:51 10° S
Cosmos 1023 Rocket 4.3 04:15:16 10° NNW 04:20:33 85° WSW 04:25:49 10° SSE
Meteor PRIRODA 4.3 04:19:46 10° NNE 04:22:33 49° NNE 04:22:33 49° NNE
Cosmos 1782 4.2 04:20:28 10° SSE 04:24:08 38° E 04:27:51 10° NNE
Cosmos 2369 Rocket 3.8 04:26:32 19° NNW 04:26:32 19° NNW 04:29:27 10° N
PAYLOAD B 4.3 04:20:27 10° N 04:25:49 52° WNW 04:26:02 51° WNW
Cosmos 2219 3.1 04:21:32 10° NNW 04:27:14 87° WSW 04:32:53 10° SSE
CZ-4B DEB 4.3 04:22:19 10° N 04:27:43 55° WNW 04:28:22 52° W
Cosmos 2227 Rocket 3.9 04:23:08 10° N 04:28:15 33° NE 04:33:19 10° ESE
Okean-O 2.7 04:26:50 10° NNE 04:31:17 74° ESE 04:34:38 17° S
Meteor 2-10 Rocket 3.4 04:31:13 56° WSW 04:31:51 61° WNW 04:36:56 10° N
Meteor 1-26 Rocket 4.1 04:30:17 42° SW 04:32:04 63° WNW 04:37:38 10° N
Cosmos 1452 Rocket 3.6 04:33:11 50° W 04:33:37 52° WNW 04:38:48 10° N
Cosmos 1607 4.5 04:29:04 12° SSW 04:34:40 56° ESE 04:40:42 10° NE
Cosmos 1244 Rocket 4.4 04:29:15 10° NNW 04:35:21 58° W 04:41:21 10° S
Meteor 1-25 Rocket 4.3 04:29:57 10° N 04:35:49 87° E 04:41:40 10° S
Thor Agena Rocket 3.5 04:33:03 10° SSE 04:38:16 85° ENE 04:43:26 10° NNW
Okean 2 Rocket 2.9 04:34:41 10° N 04:39:06 77° W 04:43:28 10° S
Cosmos 1703 Rocket 4.2 04:40:23 37° NW 04:40:23 37° NW 04:43:37 10° N
Tiangong 1 1.7 04:40:32 50° E 04:40:32 50° E 04:42:49 10° E
Meteor 1-31 Rocket 2.6 04:36:34 10° NNE 04:40:28 88° WNW 04:41:55 37° SSW
SL-08 R/B 4.4 04:37:44 10° N 04:44:05 79° W 04:50:24 10° S
Cosmos 1741 Rocket 3.9 04:40:23 10° NNW 04:45:39 84° WSW 04:50:55 10° SSE
ERS-2 3.3 04:43:36 10° N 04:45:50 29° NNW 04:45:50 29° NNW
ATLAS 5 CENTAUR R/B 3.5 04:51:29 18° NW 04:52:07 19° NNW 04:55:50 10° NNE
Cosmos 614 Rocket 3.9 04:47:27 10° NNW 04:52:28 57° WSW 04:57:29 10° S
Cosmos 1140 Rocket 3.7 04:47:37 10° NNW 04:52:33 43° WSW 04:57:30 10° S
Cosmos 1943 Rocket 3.5 04:56:40 21° NW 04:56:59 21° NW 05:01:09 10° N
Cosmos 2151 Rocket 3.6 04:54:40 10° N 04:59:13 83° E 05:03:40 10° S
ADEOS II 2.9 04:56:43 10° N 05:01:10 29° WNW 05:02:06 27° W
CZ-4C R/B 2.7 05:00:42 28° W 05:02:58 41° NW 05:08:44 10° NNE
S3M 4.0 04:56:46 10° SSW 05:03:00 60° W 05:09:12 10° N
Okean O Rocket 3.7 05:03:05 10° NNW 05:03:57 13° NW 05:03:57 13° NW
BREEZE M DEB (TANK) 4.4 04:56:57 21° W 05:06:08 53° NNW 05:10:43 10° ENE
Lacrosse 5 3.3 05:04:44 19° NW 05:06:39 23° NNW 05:10:41 10° NNE
COSMO-SKYMED 1 2.5 05:03:47 10° SSE 05:08:08 90° ENE 05:12:30 10° NNW
Meteor 1-10 Rocket 4.1 05:02:41 10° SSW 05:08:16 82° W 05:13:58 10° N
Cosmos 1553 Rocket 4.1 05:02:24 10° SSW 05:08:26 52° WNW 05:14:37 10° N
Radarsat Rocket 4.3 05:03:59 10° NNE 05:11:10 83° ESE 05:17:27 10° SSW
Okean 1-7 3.9 05:14:32 24° W 05:15:34 27° WNW 05:19:13 10° NNW
Meteor 1-28 Rocket 3.3 05:11:58 10° SSE 05:15:42 78° ENE 05:19:28 10° N
CZ-4B R/B 4.4 05:12:43 10° NNW 05:16:58 23° WNW 05:18:49 19° W
USA 81 4.0 05:13:58 10° SSW 05:19:11 62° W 05:24:26 10° N
CZ-4 R/B 4.2 05:18:58 10° NE 05:22:18 23° E 05:25:34 10° SSE
ISS 0.0 05:24:40 10° SE 05:25:28 11° SE 05:26:17 10° ESE
Gblst 52 Del rocket 4.5 05:20:43 10° SW 05:26:24 78° SE 05:32:50 10° ENE
COSMOS 2455 3.7 05:23:13 10° S 05:29:02 53° ESE 05:34:54 10° NE
Cosmos 2082 3.8 05:25:29 10° NNW 05:31:11 86° ENE 05:36:49 10° SSE
Cosmos 1536 3.2 05:35:16 10° N 05:39:16 67° E 05:43:15 10° SSE
Cosmos 1709 Rocket 3.9 05:33:14 10° N 05:39:20 74° W 05:45:28 10° S
Ariane Rocket 3.1 05:36:00 10° NNE 05:41:07 87° ESE 05:46:12 10° SSW
USA 234 3.5 05:34:57 10° NE 05:41:18 57° NNW 05:47:39 10° WSW
Meteor 1-27 Rocket 3.8 05:36:04 10° SSW 05:41:51 73° W 05:47:47 10° N
Cosmos 1606 3.5 05:39:35 10° SW 05:43:00 29° WNW 05:46:28 10° NNW
Lacrosse 5 rocket 1.2 05:40:22 10° NW 05:43:52 52° SW 05:47:23 10° SSE
NOSS 3-2 (A) 4.5 05:40:33 10° S 05:46:17 50° ESE 05:52:31 10° NE
Cosmos 1300 Rocket 3.6 05:42:02 10° NNW 05:46:25 61° W 05:50:44 10° S
USA 238 DEB 3.8 05:40:31 10° SW 05:47:31 81° NW 05:54:35 10° NE
USA 238 3.8 05:40:35 10° SW 05:47:37 81° NW 05:54:42 10° NE
Cosmos 1602 4.0 05:44:09 10° NNW 05:48:00 49° W 05:51:48 10° SSW
Cosmos 2369 3.7 05:42:46 10° SSW 05:48:24 77° WNW 05:54:05 10° NNE
Abrixas 3.4 05:45:49 10° NW 05:48:33 39° NNE 05:51:18 10° E
Cosmos 1975 Rocket 4.2 05:45:02 10° SSE 05:49:15 49° E 05:53:29 10° NNE
Okean 3 3.6 05:46:06 10° S 05:50:24 86° E 05:54:45 10° N
Cosmos 2297 Rocket 2.2 05:46:13 10° NNW 05:51:53 75° WSW 05:57:29 10° SSE
SKYMED 2 4.5 05:52:39 10° SSW 05:56:20 27° W 06:00:03 10° NW
CSL-04 Debris 4.2 05:51:55 10° NNE 05:57:21 89° E 06:02:44 10° SSW
Cosmos 1782 4.4 05:58:15 10° WSW 06:00:41 16° WNW 06:03:08 10° NNW
Cosmos 2315 Rocket 4.1 05:55:01 10° SSW 06:01:16 57° W 06:07:31 10° N
Cosmos 1486 Rocket 4.0 05:57:59 10° NNW 06:03:15 78° WSW 06:08:26 10° SSE
Cosmos 1331 Rocket 4.2 05:58:26 10° SW 06:03:27 50° WNW 06:08:32 10° N
Cosmos 1633 3.5 06:00:55 10° NNW 06:03:58 26° W 06:06:58 10° SSW
Cosmos 2278 3.8 05:58:35 10° SW 06:04:07 55° WNW 06:09:41 10° NNE
Cosmos 1378 Rocket 3.6 06:01:18 10° SSW 06:05:38 62° W 06:09:57 10° N
ATLAS 3B R/B 3.2 05:58:27 10° WSW 06:05:38 46° NW 06:12:35 10° NNE
Cosmos 1674 Rocket 4.3 06:01:58 10° SW 06:05:57 32° WNW 06:09:59 10° N
IRS-1A Rocket 4.5 06:01:23 10° NNE 06:06:59 81° ESE 06:12:29 10° SSW
